Los Cabos International Airport
MMSD : now visible

Airfield :











YOU CAN JOIN US ON...

 
LOGIN :

Register | Disclaimer

   EN    FR    IT 

 









Legend :    VFR   Marginal VFR   IFR   Intensive IFR   Very Intensive IFR
Visi :
Ceiling :
>= 8 km
>= 3000ft
5 to 8 km
1000 to 3000 ft
1500m to 5 km
500 to 1000 ft
800 to 1500m
200 to 500 ft
< 800m
< 200 ft
Symbols :   Thunderstorms  Fog  Heavy snow  Heavy precipitations  Wind > 20 kt






- Airport Elevation : 374 ft
- IATA code : SJD


MMSD - Los Cabos International

CURRENT METAR :
  • 202145Z 08010KT 10SM FEW140 30/15 A2986 RMK 8/030 ISOL CI

EXPIRED METARs :
  • 202048Z 11010KT 10SM SCT120 31/15 A2986 RMK SLP095 58010 948 8/030 CI
  • 201940Z 08010KT 10SM FEW120 32/16 A2987 RMK 8/030 CI

TAF TAF MMSD
Valid from the 20 at 18:00 until the 21 at 18:00 UTC


201707Z 2018/2118 15012KT P6SM SCT030 SCT120
BECMG 2021/2022 BKN030 BKN120
FM210300 15005KT P6SM SCT120
BECMG 2117/2118 15010KT SCT120
MMFR FIR / North America



MET'MAP, your aeronautical weather chart ! - Copyright ORBIFLY December 2007 - Disclaimer

ORBIFLY MET'MAP TEAM :

Programming & Development : Alexandra Zaïnal
Concept & original design : Baudouin d'Aumeries
Assistance for programming : Marc-Olivier Méhu
Technical & hardware support : Manuel Goepfert

Contact : metmap@orbifly.com




SOURCES & CREDITS :

   NOAA       Earth
Advisory